Volver al catálogo

CZ-6A DEB

ActivoPO
NORAD 60713·DEBRIS·🇨🇳 China

Lanzado Aug 6, 2024 desde Taiyuan Satellite Launch Center

Loading…

Próximos Pases (próximas 24 horas)

TLE

ActualizadoSource: Space-Track

Época: Sep 14, 2026, 17:32 UTC

1 60713U 24140DS  26257.73061369  .00000111  00000-0  46009-4 0  9991
2 60713  89.0074 265.8043 0046142 235.9802 123.7002 14.19038700108299

Sigue CZ-6A DEB en tiempo real con AllMySat

Download on the App Store